Location: ??
(34.7707°N, 135.6540°E)
Time: 14:07:39
(UTC+00:00)

STARLINK-3054 - Pass Details

Date: 28 September 2021
Orbit: 357 x 362 km, 70.0° (Epoch: 23 October)

Event Time Altitude Azimuth Distance (km) Brightness Sun altitude
Rises 20:10:46 0° 164° (SSE) 2,167 6.8 -9.0°
Reaches altitude 10° 20:13:31 10° 134° (SE) 1,329 6.3 -8.4°
Maximum altitude 20:14:56 13° 104° (ESE) 1,177 6.7 -8.1°
Drops below altitude 10° 20:16:22 10° 75° (ENE) 1,336 7.2 -7.8°
Sets 20:19:08 0° 45° (NE) 2,188 7.5 -7.2°
